Kodiak, AK

11:51 AM AKDT on May 29, 2017 (GMT -0800)
Kodiak

Weather History for PADQ - November, 2012

Change the Weather History Date:

Thursday, November 22, 2012

  Actual Average Record
Temperature  
Mean Temperature 34 °F 33 °F  
Max Temperature 38 °F 38 °F 49 °F (1967)
Min Temperature 30 °F 28 °F 3 °F (1927)
Degree Days  
Heating Degree Days 31 32  
Month to date heating degree days 662 672  
Since 1 July heating degree days 2676 2534  
Cooling Degree Days 0 0  
Month to date cooling degree days 0 0  
Year to date cooling degree days 0 1  
Moisture  
Dew Point 27 °F    
Average Humidity 0    
Maximum Humidity 0    
Minimum Humidity 0    
Precipitation  
Precipitation 0.29 in 0.23 in 2.87 in (2002)
Month to date precipitation 3.78 4.89  
Year to date precipitation 51.54 67.29  
Snow  
Snow 1.20 in 0.30 in 4.00 in (1922)
Month to date snowfall 5.3 3.7  
Since 1 July snowfall 5.7 4.8  
Since 1 September snowfall 5.7 4.8  
Snow Depth 4.00 in    
Sea Level Pressure  
Sea Level Pressure 29.52 in    
Wind  
Wind Speed 19 mph (NW)    
Max Wind Speed 33 mph    
Max Gust Speed 44 mph    
Visibility 5 miles    
Events Rain , Snow    
T = Trace of Precipitation, MM = Missing Value Source: NWS Daily Summary

Daily Weather History Graph

Daily Weather History Graph

Search for Another Location

Airport or City:

Trip Planner

Search our weather history database for the weather conditions in past years. The results will help you decide how hot, cold, wet, or windy it might be!

Date:

Astronomy

Nov. 22, 2012 Rise Set
Actual Time 9:11 AM AKST 4:40 PM AKST
Civil Twilight 8:25 AM AKST 5:26 PM AKST
Nautical Twilight 7:35 AM AKST 6:16 PM AKST
Astronomical Twilight 6:49 AM AKST 7:02 PM AKST
Moon 2:27 PM AKST (11/22) 2:38 AM AKST (11/22)
Length of Visible Light 9h 01m
Length of Day
7h 28m
Waxing Gibbous, 72% of the Moon is Illuminated
Nov 22
Waxing Gibbous
Nov 28
Full
Dec 6
Last Quarter
Dec 12
New
Dec 19
First Quarter

Hourly Weather History & Observations

Time (AKST) Temp. Windchill Dew Point Humidity Pressure Visibility Wind Dir Wind Speed Gust Speed Precip Events Conditions
12:24 AM 30.2 °F 17.1 °F 24.8 °F 80% 29.60 in 4.0 mi WNW 21.9 mph 32.2 mph 0.00 in Snow Light Snow
12:53 AM 30.9 °F 17.8 °F 25.0 °F 79% 29.61 in 4.0 mi WNW 23.0 mph 29.9 mph 0.00 in Snow Light Snow
1:10 AM 30.2 °F 18.5 °F 24.8 °F 80% 29.60 in 5.0 mi WNW 17.3 mph 27.6 mph 0.00 in Snow Light Snow
1:18 AM 30.2 °F 17.4 °F 24.8 °F 80% 29.60 in 3.0 mi WNW 20.7 mph 28.8 mph 0.00 in Snow Light Snow
1:53 AM 30.9 °F 19.8 °F 25.0 °F 79% 29.60 in 7.0 mi NW 16.1 mph 25.3 mph 0.00 in Snow Light Snow
2:14 AM 30.2 °F 17.4 °F 26.6 °F 86% 29.60 in 2.5 mi WNW 20.7 mph 34.5 mph 0.00 in Snow Light Snow
2:22 AM 30.2 °F 16.8 °F 26.6 °F 86% 29.60 in 1.2 mi WNW 23.0 mph 28.8 mph 0.00 in Snow Light Snow
2:48 AM 30.2 °F 17.4 °F 26.6 °F 86% 29.59 in 2.0 mi WNW 20.7 mph 31.1 mph 0.01 in Snow Light Snow
3:09 AM 30.2 °F 19.3 °F 28.4 °F 93% 29.60 in 1.2 mi NW 15.0 mph - 0.00 in Snow Light Snow
3:50 AM 30.2 °F 17.4 °F 28.4 °F 93% 29.60 in 2.0 mi WNW 20.7 mph 25.3 mph 0.03 in Snow Light Snow
3:53 AM 30.9 °F 18.7 °F 28.0 °F 89% 29.60 in 1.5 mi WNW 19.6 mph 25.3 mph 0.03 in Snow Light Snow
4:00 AM 30.2 °F 18.1 °F 28.4 °F 93% 29.59 in 1.2 mi WNW 18.4 mph 25.3 mph 0.00 in Snow Light Snow
4:10 AM 32.0 °F 20.8 °F 28.4 °F 87% 29.59 in 2.5 mi NW 17.3 mph 25.3 mph 0.00 in Snow Light Snow
4:23 AM 32.0 °F 21.2 °F 28.4 °F 87% 29.59 in 6.0 mi NW 16.1 mph 20.7 mph 0.00 in Snow Light Snow
4:42 AM 33.8 °F 23.2 °F 28.4 °F 81% 29.58 in 10.0 mi WNW 17.3 mph 23.0 mph 0.00 in   Mostly Cloudy
4:53 AM 33.1 °F 24.4 °F 28.9 °F 85% 29.58 in 10.0 mi NW 11.5 mph 24.2 mph 0.00 in   Mostly Cloudy
5:08 AM 33.8 °F 24.8 °F 30.2 °F 87% 29.58 in 3.0 mi NW 12.7 mph 21.9 mph 0.00 in Snow Light Snow
5:11 AM 33.8 °F 22.8 °F 30.2 °F 87% 29.58 in 1.8 mi NW 18.4 mph 23.0 mph 0.00 in Snow Light Snow
5:22 AM 32.0 °F 23.0 °F 30.2 °F 93% 29.57 in 3.0 mi NW 11.5 mph 23.0 mph 0.02 in Snow Light Snow
5:48 AM 33.8 °F 25.3 °F 30.2 °F 87% 29.56 in 1.8 mi NNW 11.5 mph 23.0 mph 0.02 in Snow Light Snow
5:53 AM 32.0 °F 21.6 °F 30.0 °F 92% 29.57 in 1.2 mi NW 15.0 mph 20.7 mph 0.03 in Snow Light Snow
5:56 AM 32.0 °F 20.8 °F 30.2 °F 93% 29.56 in 1.0 mi NW 17.3 mph 20.7 mph 0.00 in Snow Light Snow
6:08 AM 33.8 °F 24.3 °F 30.2 °F 87% 29.56 in 1.2 mi NW 13.8 mph - 0.02 in Snow Light Snow
6:17 AM 33.8 °F 25.8 °F 32.0 °F 93% 29.56 in 3.0 mi NNW 10.4 mph 23.0 mph 0.03 in Snow Light Snow
6:28 AM 35.6 °F 27.5 °F 32.0 °F 87% 29.56 in 5.0 mi NNW 11.5 mph 24.2 mph 0.04 in Rain Light Rain
6:53 AM 37.9 °F 29.6 °F 33.1 °F 83% 29.56 in 7.0 mi North 13.8 mph 29.9 mph 0.04 in Rain Light Rain
7:53 AM 36.0 °F 28.0 °F 32.0 °F 86% 29.55 in 8.0 mi NW 11.5 mph 25.3 mph 0.01 in Rain Light Rain
8:53 AM 36.0 °F 28.0 °F 33.1 °F 89% 29.55 in 5.0 mi North 11.5 mph 21.9 mph 0.05 in Rain Rain
9:53 AM 35.1 °F 26.4 °F 32.0 °F 89% 29.54 in 4.0 mi NW 12.7 mph - 0.07 in Rain , Snow Light Rain
10:53 AM 34.0 °F 23.0 °F 30.9 °F 89% 29.53 in 2.0 mi NW 18.4 mph 24.2 mph 0.04 in Snow Light Snow
11:53 AM 34.0 °F 23.8 °F 30.0 °F 85% 29.52 in 2.0 mi WNW 16.1 mph 31.1 mph 0.01 in Snow Light Snow
12:20 PM 33.8 °F 23.9 °F 28.4 °F 81% 29.50 in 5.0 mi WNW 15.0 mph 26.5 mph 0.00 in Snow Light Snow
12:53 PM 33.1 °F 22.2 °F 27.0 °F 78% 29.49 in 7.0 mi WNW 17.3 mph 29.9 mph 0.00 in   Mostly Cloudy
1:53 PM 32.0 °F 20.5 °F 27.0 °F 82% 29.47 in 7.0 mi WNW 18.4 mph 25.3 mph N/A   Mostly Cloudy
2:53 PM 32.0 °F 21.6 °F 25.0 °F 75% 29.44 in 7.0 mi NW 15.0 mph 25.3 mph N/A   Mostly Cloudy
3:53 PM 32.0 °F 20.5 °F 26.1 °F 79% 29.42 in 10.0 mi WNW 18.4 mph 29.9 mph N/A   Mostly Cloudy
4:53 PM 32.0 °F 19.2 °F 24.1 °F 73% 29.38 in 10.0 mi WNW 23.0 mph 31.1 mph N/A   Mostly Cloudy
5:00 PM 32.0 °F 20.1 °F 24.8 °F 75% 29.37 in 10.0 mi WNW 19.6 mph 38.0 mph N/A   Mostly Cloudy
5:53 PM 32.0 °F 19.2 °F 23.0 °F 69% 29.37 in 10.0 mi WNW 23.0 mph 29.9 mph N/A   Mostly Cloudy
6:53 PM 30.9 °F 17.8 °F 21.9 °F 69% 29.37 in 10.0 mi WNW 23.0 mph 32.2 mph N/A   Scattered Clouds
7:53 PM 32.0 °F 18.1 °F 21.0 °F 64% 29.36 in 10.0 mi WNW 27.6 mph 36.8 mph N/A   Mostly Cloudy
8:53 PM 32.0 °F 19.5 °F 19.9 °F 61% 29.34 in 10.0 mi WNW 21.9 mph 31.1 mph N/A   Mostly Cloudy
9:53 PM 32.0 °F 18.9 °F 18.0 °F 56% 29.35 in 10.0 mi WNW 24.2 mph 35.7 mph N/A   Scattered Clouds
10:53 PM 33.1 °F 20.6 °F 19.0 °F 56% 29.35 in 10.0 mi NW 23.0 mph 32.2 mph N/A   Mostly Cloudy
11:53 PM 34.0 °F 19.9 °F 16.0 °F 48% 29.35 in 10.0 mi WNW 32.2 mph 42.6 mph N/A   Mostly Cloudy